Weather History for KOWA - December, 2012

Change the Weather History Date:

Friday, December 21, 2012

  Actual Average Record
Temperature  
Mean Temperature 10 °F -  
Max Temperature 17 °F 24 °F 51 °F (1967)
Min Temperature 3 °F 6 °F -25 °F (1963)
Degree Days  
Heating Degree Days 55    
Moisture  
Dew Point 2 °F    
Average Humidity 69    
Maximum Humidity 79    
Minimum Humidity 58    
Precipitation  
Precipitation 0.00 in - - ()
Sea Level Pressure  
Sea Level Pressure 30.17 in    
Wind  
Wind Speed 10 mph (West)    
Max Wind Speed 17 mph    
Max Gust Speed -    
Visibility 10 miles    
Events Snow    
Averages and records for this station are not official NWS values.
T = Trace of Precipitation, MM = Missing Value Source: NWS Daily Summary

Daily Weather History Graph

Daily Weather History Graph

Search for Another Location

Airport or City:

Trip Planner

Search our weather history database for the weather conditions in past years. The results will help you decide how hot, cold, wet, or windy it might be!

Date:

Astronomy

Dec. 21, 2012 Rise Set
Actual Time 7:45 AM CST 4:37 PM CST
Civil Twilight 7:12 AM CST 5:10 PM CST
Nautical Twilight 6:35 AM CST 5:47 PM CST
Astronomical Twilight 6:00 AM CST 6:22 PM CST
Moon 12:33 PM CST (12/21) 1:23 AM CST (12/21)
Length of Visible Light 9h 58m
Length of Day
8h 52m
Waxing Gibbous, 65% of the Moon is Illuminated
Dec 21
Waxing Gibbous
Dec 28
Full
Jan 4
Last Quarter
Jan 11
New
Jan 18
First Quarter

Hourly Weather History & Observations

Time (CST) Temp. Windchill Dew Point Humidity Pressure Visibility Wind Dir Wind Speed Gust Speed Precip Events Conditions
12:14 AM 14.0 °F -2.0 °F 6.8 °F 73% 30.02 in 10.0 mi NW 16.1 mph - N/A   Overcast
12:34 AM 12.2 °F -4.8 °F 6.8 °F 79% 30.03 in 7.0 mi NW 17.3 mph - N/A Snow Light Snow
12:55 AM 12.2 °F -3.1 °F 5.0 °F 73% 30.03 in 10.0 mi NW 13.8 mph - N/A Snow Light Snow
1:14 AM 12.2 °F -3.7 °F 5.0 °F 73% 30.03 in 10.0 mi WNW 15.0 mph - N/A   Mostly Cloudy
1:34 AM 12.2 °F -3.1 °F 5.0 °F 73% 30.04 in 10.0 mi WNW 13.8 mph - N/A   Scattered Clouds
1:54 AM 12.2 °F -2.5 °F 3.2 °F 67% 30.05 in 10.0 mi WNW 12.7 mph - N/A   Mostly Cloudy
2:14 AM 10.4 °F -4.1 °F 3.2 °F 73% 30.07 in 10.0 mi WNW 11.5 mph - N/A Snow Light Snow
2:34 AM 10.4 °F -3.3 °F 3.2 °F 73% 30.08 in 7.0 mi WNW 10.4 mph - N/A Snow Light Snow
2:54 AM 10.4 °F -4.1 °F 3.2 °F 73% 30.09 in 5.0 mi WNW 11.5 mph - N/A Snow Light Snow
3:14 AM 10.4 °F -4.1 °F 3.2 °F 73% 30.09 in 10.0 mi WNW 11.5 mph - N/A Snow Light Snow
3:34 AM 10.4 °F -2.4 °F 1.4 °F 67% 30.10 in 10.0 mi WNW 9.2 mph - N/A Snow Light Snow
3:54 AM 10.4 °F -3.3 °F 1.4 °F 67% 30.10 in 10.0 mi WNW 10.4 mph - N/A Snow Light Snow
4:13 AM 8.6 °F -5.5 °F 1.4 °F 73% 30.11 in 10.0 mi WNW 10.4 mph - N/A   Clear
4:34 AM 8.6 °F -6.3 °F 1.4 °F 73% 30.12 in 10.0 mi WNW 11.5 mph - N/A   Clear
4:54 AM 8.6 °F -5.5 °F 1.4 °F 73% 30.12 in 10.0 mi WNW 10.4 mph - N/A   Clear
5:14 AM 8.6 °F -4.7 °F -0.4 °F 67% 30.13 in 10.0 mi WNW 9.2 mph - N/A Snow Light Snow
5:33 AM 6.8 °F -6.9 °F -0.4 °F 72% 30.12 in 10.0 mi WNW 9.2 mph - N/A   Clear
5:53 AM 6.8 °F -10.0 °F -0.4 °F 72% 30.15 in 10.0 mi West 13.8 mph - N/A   Clear
6:13 AM 6.8 °F -8.6 °F -0.4 °F 72% 30.15 in 10.0 mi West 11.5 mph - N/A   Clear
6:34 AM 6.8 °F -8.6 °F -0.4 °F 72% 30.16 in 10.0 mi West 11.5 mph - N/A   Clear
6:54 AM 6.8 °F -7.8 °F -2.2 °F 67% 30.17 in 10.0 mi West 10.4 mph - N/A   Clear
7:14 AM 5.0 °F -9.1 °F -2.2 °F 72% 30.17 in 10.0 mi West 9.2 mph - N/A   Clear
7:33 AM 3.2 °F -11.3 °F -4.0 °F 72% 30.18 in 10.0 mi West 9.2 mph - N/A   Clear
7:53 AM 3.2 °F -12.2 °F -4.0 °F 72% 30.20 in 10.0 mi West 10.4 mph - N/A   Clear
8:13 AM 5.0 °F -8.1 °F -2.2 °F 72% 30.20 in 10.0 mi WNW 8.1 mph - N/A   Clear
8:34 AM 5.0 °F -8.1 °F -2.2 °F 72% 30.21 in 10.0 mi WNW 8.1 mph - N/A   Clear
8:54 AM 6.8 °F -4.8 °F -2.2 °F 67% 30.22 in 10.0 mi WNW 6.9 mph - N/A   Clear
9:13 AM 6.8 °F -7.8 °F -2.2 °F 67% 30.22 in 10.0 mi WNW 10.4 mph - N/A   Clear
9:33 AM 6.8 °F -7.8 °F -0.4 °F 72% 30.22 in 10.0 mi West 10.4 mph - N/A   Clear
9:53 AM 8.6 °F -3.7 °F -0.4 °F 67% 30.23 in 10.0 mi WNW 8.1 mph - N/A   Clear
10:13 AM 8.6 °F -6.3 °F -0.4 °F 67% 30.23 in 10.0 mi WNW 11.5 mph - N/A   Clear
10:33 AM 8.6 °F -3.7 °F -0.4 °F 67% 30.23 in 10.0 mi WNW 8.1 mph - N/A   Clear
10:54 AM 10.4 °F -1.5 °F 1.4 °F 67% 30.22 in 10.0 mi WNW 8.1 mph - N/A   Clear
11:15 AM 10.4 °F -2.4 °F 1.4 °F 67% 30.22 in 10.0 mi WNW 9.2 mph - N/A   Clear
11:33 AM 10.4 °F -2.4 °F 1.4 °F 67% 30.22 in 10.0 mi West 9.2 mph - N/A   Clear
11:53 AM 12.2 °F -1.0 °F 1.4 °F 62% 30.22 in 10.0 mi West 10.4 mph - N/A   Clear
12:14 PM 12.2 °F -1.8 °F 3.2 °F 67% 30.22 in 10.0 mi West 11.5 mph - N/A   Clear
12:33 PM 12.2 °F -0.2 °F 3.2 °F 67% 30.21 in 10.0 mi WNW 9.2 mph - N/A   Clear
12:54 PM 14.0 °F 2.0 °F 3.2 °F 62% 30.20 in 10.0 mi WNW 9.2 mph - N/A   Clear
1:14 PM 14.0 °F 2.9 °F 3.2 °F 62% 30.20 in 10.0 mi WNW 8.1 mph - N/A   Clear
1:33 PM 14.0 °F 5.1 °F 3.2 °F 62% 30.20 in 10.0 mi NW 5.8 mph - N/A   Clear
1:53 PM 15.8 °F 8.6 °F 3.2 °F 58% 30.19 in 10.0 mi NW 4.6 mph - N/A   Clear
2:13 PM 15.8 °F 8.6 °F 3.2 °F 58% 30.19 in 10.0 mi West 4.6 mph - N/A   Clear
2:33 PM 15.8 °F 5.1 °F 5.0 °F 62% 30.20 in 10.0 mi West 8.1 mph - N/A   Clear
2:54 PM 17.6 °F 7.3 °F 5.0 °F 58% 30.20 in 10.0 mi WNW 8.1 mph - N/A   Clear
3:14 PM 17.6 °F 9.3 °F 5.0 °F 58% 30.20 in 10.0 mi West 5.8 mph - N/A   Clear
3:34 PM 17.6 °F 8.2 °F 6.8 °F 63% 30.21 in 10.0 mi West 6.9 mph - N/A   Clear
3:53 PM 15.8 °F 6.1 °F 5.0 °F 62% 30.21 in 10.0 mi West 6.9 mph - N/A   Clear
4:14 PM 15.8 °F 7.2 °F 5.0 °F 62% 30.22 in 10.0 mi West 5.8 mph - N/A   Clear
4:34 PM 14.0 °F - 3.2 °F 62% 30.22 in 10.0 mi Calm Calm - N/A   Clear
4:53 PM 12.2 °F - 3.2 °F 67% 30.22 in 10.0 mi Calm Calm - N/A   Clear
5:14 PM 10.4 °F - 1.4 °F 67% 30.22 in 10.0 mi Calm Calm - N/A   Clear
5:33 PM 10.4 °F - 3.2 °F 73% 30.22 in 10.0 mi Calm Calm - N/A   Clear
5:53 PM 8.6 °F - 1.4 °F 73% 30.22 in 10.0 mi Calm Calm - N/A   Clear
6:13 PM 8.6 °F 2.0 °F 1.4 °F 73% 30.22 in 10.0 mi SW 3.5 mph - N/A   Clear
6:33 PM 10.4 °F 4.0 °F 1.4 °F 67% 30.21 in 10.0 mi SSW 3.5 mph - N/A   Clear
6:54 PM 10.4 °F 2.2 °F 1.4 °F 67% 30.22 in 10.0 mi SW 4.6 mph - N/A   Clear
7:14 PM 8.6 °F - 1.4 °F 73% 30.22 in 10.0 mi Calm Calm - N/A   Clear
7:34 PM 10.4 °F - 1.4 °F 67% 30.21 in 10.0 mi Calm Calm - N/A   Clear
7:53 PM 10.4 °F - 3.2 °F 73% 30.21 in 10.0 mi Calm Calm - N/A   Clear
8:13 PM 6.8 °F - 1.4 °F 79% 30.21 in 10.0 mi Calm Calm - N/A   Clear
8:33 PM 10.4 °F 2.2 °F 3.2 °F 73% 30.20 in 10.0 mi South 4.6 mph - N/A   Clear
8:53 PM 10.4 °F - 3.2 °F 73% 30.20 in 10.0 mi Calm Calm - N/A   Clear
9:13 PM 8.6 °F 2.0 °F 1.4 °F 73% 30.19 in 10.0 mi SSE 3.5 mph - N/A   Clear
9:33 PM 10.4 °F 2.2 °F 3.2 °F 73% 30.19 in 10.0 mi SSE 4.6 mph - N/A   Clear
9:54 PM 10.4 °F 4.0 °F 3.2 °F 73% 30.19 in 10.0 mi South 3.5 mph - N/A   Clear
10:14 PM 10.4 °F - 3.2 °F 73% 30.19 in 10.0 mi Calm Calm - N/A   Clear
10:33 PM 10.4 °F 2.2 °F 3.2 °F 73% 30.18 in 10.0 mi SSE 4.6 mph - N/A   Clear
10:54 PM 10.4 °F 4.0 °F 3.2 °F 73% 30.17 in 10.0 mi ESE 3.5 mph - N/A   Clear
11:13 PM 10.4 °F - 3.2 °F 73% 30.18 in 10.0 mi Calm Calm - N/A   Clear
11:33 PM 10.4 °F 4.0 °F 3.2 °F 73% 30.18 in 10.0 mi SE 3.5 mph - N/A   Clear
11:53 PM 10.4 °F 4.0 °F 3.2 °F 73% 30.17 in 10.0 mi SE 3.5 mph - N/A   Clear